www.cux-wetter.de
Wetterdaten: Donnerstag, 30.05.2013
Datum Zeit Temp. A. Feuchte A. Luftdruck Regen Wind Richtung Richtung Sonnenschein Solar Taupunkt Windchill Windben
30.05.2013 00:14 13,0 C 89 % 1002,5 hPa 0,0 l/m 0,0 km/h (0 Bft) SO 140 0 min 0 W/m 11,2 C 13,0 C 0,0 km/h (0 Bft)
30.05.2013 00:29 13,0 C 89 % 1002,5 hPa 0,0 l/m 0,0 km/h (0 Bft) SO 140 0 min 0 W/m 11,2 C 13,0 C 0,0 km/h (0 Bft)
30.05.2013 00:44 12,9 C 89 % 1002,5 hPa 0,0 l/m 4,0 km/h (1 Bft) SO 140 0 min 0 W/m 11,1 C 12,9 C 4,0 km/h (1 Bft)
30.05.2013 01:00 12,8 C 89 % 1002,5 hPa 0,0 l/m 4,2 km/h (1 Bft) SO 140 0 min 0 W/m 11,0 C 12,8 C 4,2 km/h (1 Bft)
30.05.2013 01:15 12,7 C 89 % 1002,5 hPa 0,0 l/m 0,1 km/h (0 Bft) SO 140 0 min 0 W/m 10,9 C 12,7 C 0,1 km/h (0 Bft)
30.05.2013 01:29 12,7 C 89 % 1002,5 hPa 0,0 l/m 0,0 km/h (0 Bft) SO 140 0 min 0 W/m 10,9 C 12,7 C 0,0 km/h (0 Bft)
30.05.2013 01:44 12,5 C 89 % 1002,5 hPa 0,0 l/m 0,0 km/h (0 Bft) SO 140 0 min 0 W/m 10,7 C 12,5 C 0,0 km/h (0 Bft)
30.05.2013 02:00 12,4 C 90 % 1002,5 hPa 0,0 l/m 0,0 km/h (0 Bft) SO 140 0 min 0 W/m 10,8 C 12,4 C 0,0 km/h (0 Bft)
30.05.2013 02:15 12,3 C 90 % 1002,5 hPa 0,0 l/m 0,0 km/h (0 Bft) SO 140 0 min 0 W/m 10,7 C 12,3 C 0,0 km/h (0 Bft)
30.05.2013 02:29 12,2 C 89 % 1002,5 hPa 0,0 l/m 0,0 km/h (0 Bft) SO 140 0 min 0 W/m 10,4 C 12,2 C 0,0 km/h (0 Bft)
30.05.2013 02:44 11,8 C 89 % 1002,5 hPa 0,0 l/m 0,0 km/h (0 Bft) SO 140 0 min 0 W/m 10,0 C 11,8 C 0,0 km/h (0 Bft)
30.05.2013 03:00 11,8 C 89 % 1002,5 hPa 0,0 l/m 0,0 km/h (0 Bft) SO 140 0 min 0 W/m 10,0 C 11,8 C 0,0 km/h (0 Bft)
30.05.2013 03:15 12,1 C 90 % 1002,5 hPa 0,0 l/m 0,4 km/h (0 Bft) SO 140 0 min 0 W/m 10,5 C 12,1 C 0,4 km/h (0 Bft)
30.05.2013 03:29 12,3 C 90 % 1003,5 hPa 0,0 l/m 2,8 km/h (1 Bft) SO 140 0 min 0 W/m 10,7 C 12,3 C 2,8 km/h (1 Bft)
30.05.2013 03:44 12,4 C 90 % 1003,5 hPa 0,0 l/m 0,0 km/h (0 Bft) S-SO 160 0 min 0 W/m 10,8 C 12,4 C 0,0 km/h (0 Bft)
30.05.2013 04:00 12,4 C 90 % 1003,5 hPa 0,0 l/m 0,4 km/h (0 Bft) SO 135 0 min 0 W/m 10,8 C 12,4 C 0,4 km/h (0 Bft)
30.05.2013 04:14 12,6 C 91 % 1003,5 hPa 0,0 l/m 0,0 km/h (0 Bft) SO 145 0 min 0 W/m 11,2 C 12,6 C 0,0 km/h (0 Bft)
30.05.2013 04:29 12,7 C 91 % 1003,5 hPa 0,0 l/m 0,0 km/h (0 Bft) SO 145 0 min 0 W/m 11,3 C 12,7 C 0,0 km/h (0 Bft)
30.05.2013 04:45 12,7 C 91 % 1003,5 hPa 0,0 l/m 0,0 km/h (0 Bft) SO 145 0 min 0 W/m 11,3 C 12,7 C 0,0 km/h (0 Bft)
30.05.2013 05:00 12,7 C 91 % 1003,5 hPa 0,0 l/m 0,0 km/h (0 Bft) SO 145 0 min 0 W/m 11,3 C 12,7 C 0,0 km/h (0 Bft)
30.05.2013 05:14 12,7 C 91 % 1003,5 hPa 0,0 l/m 0,0 km/h (0 Bft) SO 145 0 min 0 W/m 11,3 C 12,7 C 0,0 km/h (0 Bft)
30.05.2013 05:29 12,6 C 91 % 1003,5 hPa 0,0 l/m 0,0 km/h (0 Bft) SO 145 0 min 0 W/m 11,2 C 12,6 C 0,0 km/h (0 Bft)
30.05.2013 05:45 12,7 C 91 % 1003,5 hPa 0,0 l/m 0,0 km/h (0 Bft) SO 145 0 min 0 W/m 11,3 C 12,7 C 0,0 km/h (0 Bft)
30.05.2013 06:00 12,7 C 91 % 1003,5 hPa 0,0 l/m 0,0 km/h (0 Bft) SO 145 0 min 0 W/m 11,3 C 12,7 C 0,0 km/h (0 Bft)
30.05.2013 06:14 12,8 C 91 % 1003,5 hPa 0,0 l/m 0,0 km/h (0 Bft) SO 145 0 min 0 W/m 11,4 C 12,8 C 0,0 km/h (0 Bft)
30.05.2013 06:29 12,8 C 91 % 1004,5 hPa 0,0 l/m 0,0 km/h (0 Bft) SO 145 0 min 0 W/m 11,4 C 12,8 C 0,0 km/h (0 Bft)
30.05.2013 06:45 13,0 C 91 % 1004,5 hPa 0,0 l/m 0,0 km/h (0 Bft) SO 145 0 min 0 W/m 11,6 C 13,0 C 0,0 km/h (0 Bft)
30.05.2013 07:00 13,2 C 91 % 1004,5 hPa 0,0 l/m 0,0 km/h (0 Bft) SO 145 0 min 0 W/m 11,8 C 13,2 C 0,0 km/h (0 Bft)
30.05.2013 07:14 13,2 C 91 % 1004,5 hPa 0,0 l/m 0,0 km/h (0 Bft) SO 145 0 min 0 W/m 11,8 C 13,2 C 0,0 km/h (0 Bft)
30.05.2013 07:30 13,2 C 91 % 1004,5 hPa 0,3 l/m 3,6 km/h (1 Bft) SO 145 0 min 0 W/m 11,8 C 13,2 C 3,6 km/h (1 Bft)
30.05.2013 07:45 13,2 C 91 % 1004,5 hPa 0,0 l/m 0,0 km/h (0 Bft) SO 145 0 min 0 W/m 11,8 C 13,2 C 0,0 km/h (0 Bft)
30.05.2013 08:00 13,2 C 91 % 1005,5 hPa 0,6 l/m 4,5 km/h (1 Bft) SO 145 0 min 0 W/m 11,8 C 13,2 C 4,5 km/h (1 Bft)
30.05.2013 08:15 13,2 C 91 % 1005,5 hPa 0,3 l/m 3,9 km/h (1 Bft) S 185 0 min 0 W/m 11,8 C 13,2 C 3,9 km/h (1 Bft)
30.05.2013 08:30 13,2 C 92 % 1005,5 hPa 0,0 l/m 5,2 km/h (1 Bft) S-SW 205 0 min 0 W/m 11,9 C 13,2 C 5,2 km/h (1 Bft)
30.05.2013 08:45 13,2 C 92 % 1005,5 hPa 0,0 l/m 5,3 km/h (1 Bft) S-SW 205 0 min 0 W/m 11,9 C 13,2 C 5,3 km/h (1 Bft)
30.05.2013 09:00 13,2 C 92 % 1005,5 hPa 0,6 l/m 0,0 km/h (0 Bft) S-SW 205 0 min 0 W/m 11,9 C 13,2 C 0,0 km/h (0 Bft)
30.05.2013 09:15 13,4 C 92 % 1005,5 hPa 0,6 l/m 0,0 km/h (0 Bft) S-SW 205 0 min 0 W/m 12,1 C 13,4 C 0,0 km/h (0 Bft)
30.05.2013 09:30 13,5 C 92 % 1005,5 hPa 0,3 l/m 0,0 km/h (0 Bft) S-SW 205 0 min 0 W/m 12,2 C 13,5 C 0,0 km/h (0 Bft)
30.05.2013 09:45 13,7 C 92 % 1005,5 hPa 0,3 l/m 2,7 km/h (1 Bft) S-SW 205 0 min 0 W/m 12,4 C 13,7 C 2,7 km/h (1 Bft)
30.05.2013 10:00 13,9 C 93 % 1005,5 hPa 0,0 l/m 0,6 km/h (0 Bft) S-SW 205 0 min 0 W/m 12,8 C 13,9 C 0,6 km/h (0 Bft)
30.05.2013 10:15 14,0 C 93 % 1005,5 hPa 0,0 l/m 5,2 km/h (1 Bft) S-SW 205 0 min 0 W/m 12,9 C 14,0 C 5,2 km/h (1 Bft)
30.05.2013 10:30 14,0 C 93 % 1005,5 hPa 0,0 l/m 6,8 km/h (2 Bft) N-NO 15 0 min 0 W/m 12,9 C 13,8 C 6,8 km/h (2 Bft)
30.05.2013 10:45 14,2 C 93 % 1005,5 hPa 0,0 l/m 3,8 km/h (1 Bft) N 360 0 min 0 W/m 13,1 C 14,2 C 3,8 km/h (1 Bft)
30.05.2013 11:00 14,2 C 93 % 1006,5 hPa 0,0 l/m 2,1 km/h (1 Bft) N 360 0 min 0 W/m 13,1 C 14,2 C 2,1 km/h (1 Bft)
30.05.2013 11:15 14,7 C 93 % 1006,5 hPa 0,0 l/m 0,0 km/h (0 Bft) N 360 0 min 0 W/m 13,6 C 14,7 C 0,0 km/h (0 Bft)
30.05.2013 11:30 15,2 C 93 % 1006,5 hPa 0,0 l/m 4,2 km/h (1 Bft) N 360 0 min 0 W/m 14,1 C 15,2 C 4,2 km/h (1 Bft)
30.05.2013 11:45 15,6 C 93 % 1006,5 hPa 0,0 l/m 6,8 km/h (2 Bft) N-NW 345 0 min 0 W/m 14,5 C 15,4 C 6,8 km/h (2 Bft)
30.05.2013 12:00 15,8 C 92 % 1006,5 hPa 0,0 l/m 8,3 km/h (2 Bft) NO 35 0 min 0 W/m 14,5 C 14,8 C 8,3 km/h (2 Bft)
30.05.2013 12:15 15,9 C 91 % 1006,5 hPa 0,0 l/m 9,4 km/h (2 Bft) NO 45 0 min 0 W/m 14,4 C 14,4 C 9,4 km/h (2 Bft)
30.05.2013 12:30 16,0 C 91 % 1006,5 hPa 0,0 l/m 8,7 km/h (2 Bft) O-NO 60 0 min 0 W/m 14,5 C 14,8 C 8,7 km/h (2 Bft)
30.05.2013 12:45 16,4 C 91 % 1006,5 hPa 0,0 l/m 7,1 km/h (2 Bft) NO 45 0 min 0 W/m 14,9 C 16,0 C 7,1 km/h (2 Bft)
30.05.2013 13:00 17,1 C 90 % 1006,5 hPa 0,0 l/m 9,6 km/h (2 Bft) N-NO 20 0 min 0 W/m 15,4 C 15,6 C 9,6 km/h (2 Bft)
30.05.2013 13:15 17,8 C 88 % 1006,5 hPa 0,0 l/m 9,9 km/h (2 Bft) N-NO 20 0 min 0 W/m 15,8 C 16,2 C 9,9 km/h (2 Bft)
30.05.2013 13:30 17,9 C 85 % 1006,5 hPa 0,0 l/m 16,9 km/h (3 Bft) N 5 0 min 0 W/m 15,3 C 14,2 C 16,9 km/h (3 Bft)
30.05.2013 13:45 18,4 C 84 % 1006,5 hPa 0,0 l/m 10,0 km/h (2 Bft) N-NO 15 0 min 0 W/m 15,6 C 16,9 C 10,0 km/h (2 Bft)
30.05.2013 14:00 18,4 C 81 % 1006,5 hPa 0,0 l/m 9,6 km/h (2 Bft) N 360 0 min 0 W/m 15,1 C 17,0 C 9,6 km/h (2 Bft)
30.05.2013 14:15 18,3 C 81 % 1006,5 hPa 0,0 l/m 10,4 km/h (2 Bft) N 355 0 min 0 W/m 15,0 C 16,6 C 10,4 km/h (2 Bft)
30.05.2013 14:30 18,5 C 80 % 1006,5 hPa 0,0 l/m 10,5 km/h (2 Bft) O-NO 65 0 min 0 W/m 15,0 C 16,8 C 10,5 km/h (2 Bft)
30.05.2013 14:45 19,0 C 79 % 1007,5 hPa 0,0 l/m 11,9 km/h (2 Bft) NO 45 0 min 0 W/m 15,3 C 16,9 C 11,9 km/h (2 Bft)
30.05.2013 15:00 19,1 C 76 % 1007,5 hPa 0,0 l/m 15,5 km/h (3 Bft) N-NO 25 0 min 0 W/m 14,8 C 16,0 C 15,5 km/h (3 Bft)
30.05.2013 15:15 18,6 C 78 % 1007,5 hPa 0,0 l/m 17,4 km/h (3 Bft) N 5 0 min 0 W/m 14,7 C 15,0 C 17,4 km/h (3 Bft)
30.05.2013 15:30 18,2 C 77 % 1007,5 hPa 0,0 l/m 18,6 km/h (3 Bft) N-NO 30 0 min 0 W/m 14,1 C 14,2 C 18,6 km/h (3 Bft)
30.05.2013 15:45 18,1 C 77 % 1007,5 hPa 0,0 l/m 19,2 km/h (3 Bft) NO 45 0 min 0 W/m 14,0 C 13,9 C 19,2 km/h (3 Bft)
30.05.2013 16:00 18,1 C 78 % 1007,5 hPa 0,0 l/m 17,4 km/h (3 Bft) N 10 0 min 0 W/m 14,2 C 14,3 C 17,4 km/h (3 Bft)
30.05.2013 16:15 18,1 C 78 % 1007,5 hPa 0,0 l/m 18,0 km/h (3 Bft) N 5 0 min 0 W/m 14,2 C 14,2 C 18,0 km/h (3 Bft)
30.05.2013 16:30 18,0 C 78 % 1007,5 hPa 0,0 l/m 17,0 km/h (3 Bft) NO 45 0 min 0 W/m 14,1 C 14,3 C 17,0 km/h (3 Bft)
30.05.2013 16:45 18,1 C 77 % 1007,5 hPa 0,0 l/m 17,0 km/h (3 Bft) NO 50 0 min 0 W/m 14,0 C 14,4 C 17,0 km/h (3 Bft)
30.05.2013 17:00 18,1 C 78 % 1007,5 hPa 0,0 l/m 17,1 km/h (3 Bft) N-NO 30 0 min 0 W/m 14,2 C 14,4 C 17,1 km/h (3 Bft)
30.05.2013 17:15 18,2 C 77 % 1007,5 hPa 0,0 l/m 13,8 km/h (3 Bft) N 350 0 min 0 W/m 14,1 C 15,4 C 13,8 km/h (3 Bft)
30.05.2013 17:30 18,1 C 77 % 1007,5 hPa 0,0 l/m 15,7 km/h (3 Bft) N-NO 25 0 min 0 W/m 14,0 C 14,8 C 15,7 km/h (3 Bft)
30.05.2013 17:45 17,7 C 78 % 1007,5 hPa 0,0 l/m 17,3 km/h (3 Bft) NO 35 0 min 0 W/m 13,8 C 13,9 C 17,3 km/h (3 Bft)
30.05.2013 18:00 17,7 C 78 % 1007,5 hPa 0,0 l/m 10,2 km/h (2 Bft) N-NW 330 0 min 0 W/m 13,8 C 16,0 C 10,2 km/h (2 Bft)
30.05.2013 18:15 17,5 C 79 % 1007,5 hPa 0,0 l/m 13,3 km/h (3 Bft) N-NW 345 0 min 0 W/m 13,8 C 14,7 C 13,3 km/h (3 Bft)
30.05.2013 18:30 17,1 C 80 % 1007,5 hPa 0,0 l/m 15,6 km/h (3 Bft) N 10 0 min 0 W/m 13,6 C 13,6 C 15,6 km/h (3 Bft)
30.05.2013 18:45 16,8 C 81 % 1007,5 hPa 0,0 l/m 15,5 km/h (3 Bft) N-NO 15 0 min 0 W/m 13,5 C 13,2 C 15,5 km/h (3 Bft)
30.05.2013 19:00 16,8 C 81 % 1007,5 hPa 0,0 l/m 15,0 km/h (3 Bft) NO 45 0 min 0 W/m 13,5 C 13,4 C 15,0 km/h (3 Bft)
30.05.2013 19:15 16,5 C 82 % 1007,5 hPa 0,0 l/m 15,4 km/h (3 Bft) N 10 0 min 0 W/m 13,4 C 12,9 C 15,4 km/h (3 Bft)
30.05.2013 19:30 16,3 C 83 % 1007,5 hPa 0,0 l/m 16,9 km/h (3 Bft) N-NO 15 0 min 0 W/m 13,4 C 12,2 C 16,9 km/h (3 Bft)
30.05.2013 19:45 16,1 C 83 % 1007,5 hPa 0,0 l/m 16,5 km/h (3 Bft) N-NO 20 0 min 0 W/m 13,2 C 12,1 C 16,5 km/h (3 Bft)
30.05.2013 20:00 16,0 C 85 % 1007,5 hPa 0,0 l/m 18,2 km/h (3 Bft) O-NO 65 0 min 0 W/m 13,5 C 11,5 C 18,2 km/h (3 Bft)
30.05.2013 20:15 16,0 C 85 % 1007,5 hPa 0,0 l/m 16,6 km/h (3 Bft) N 360 0 min 0 W/m 13,5 C 11,9 C 16,6 km/h (3 Bft)
30.05.2013 20:30 15,8 C 85 % 1007,5 hPa 0,0 l/m 14,4 km/h (3 Bft) N 355 0 min 0 W/m 13,3 C 12,4 C 14,4 km/h (3 Bft)
30.05.2013 20:45 15,8 C 85 % 1007,5 hPa 0,0 l/m 15,1 km/h (3 Bft) N-NO 30 0 min 0 W/m 13,3 C 12,1 C 15,1 km/h (3 Bft)
30.05.2013 21:00 15,7 C 85 % 1007,5 hPa 0,0 l/m 13,9 km/h (3 Bft) NO 40 0 min 0 W/m 13,2 C 12,4 C 13,9 km/h (3 Bft)
30.05.2013 21:15 15,5 C 85 % 1007,5 hPa 0,0 l/m 14,4 km/h (3 Bft) N-NO 30 0 min 0 W/m 13,0 C 12,0 C 14,4 km/h (3 Bft)
30.05.2013 21:30 15,5 C 86 % 1007,5 hPa 0,0 l/m 9,8 km/h (2 Bft) N-NO 30 0 min 0 W/m 13,2 C 13,8 C 9,8 km/h (2 Bft)
30.05.2013 21:45 15,4 C 87 % 1007,5 hPa 0,0 l/m 12,0 km/h (2 Bft) NO 35 0 min 0 W/m 13,2 C 12,7 C 12,0 km/h (2 Bft)
30.05.2013 22:00 15,4 C 87 % 1007,5 hPa 0,0 l/m 9,0 km/h (2 Bft) NO 45 0 min 0 W/m 13,2 C 14,0 C 9,0 km/h (2 Bft)
30.05.2013 22:15 15,2 C 87 % 1008,5 hPa 0,0 l/m 8,8 km/h (2 Bft) N-NO 25 0 min 0 W/m 13,0 C 13,9 C 8,8 km/h (2 Bft)
30.05.2013 22:30 15,1 C 88 % 1008,5 hPa 0,0 l/m 6,8 km/h (2 Bft) NO 45 0 min 0 W/m 13,1 C 14,9 C 6,8 km/h (2 Bft)
30.05.2013 22:45 15,2 C 88 % 1007,5 hPa 0,0 l/m 10,6 km/h (2 Bft) N-NO 20 0 min 0 W/m 13,2 C 13,1 C 10,6 km/h (2 Bft)
30.05.2013 23:00 15,3 C 89 % 1008,5 hPa 0,0 l/m 11,2 km/h (2 Bft) NO 35 0 min 0 W/m 13,5 C 12,9 C 11,2 km/h (2 Bft)
30.05.2013 23:15 15,2 C 89 % 1008,5 hPa 0,0 l/m 10,6 km/h (2 Bft) N-NO 30 0 min 0 W/m 13,4 C 13,1 C 10,6 km/h (2 Bft)
30.05.2013 23:30 15,0 C 89 % 1008,5 hPa 0,0 l/m 10,4 km/h (2 Bft) N 10 0 min 0 W/m 13,2 C 12,9 C 10,4 km/h (2 Bft)
30.05.2013 23:45 15,0 C 89 % 1008,5 hPa 0,0 l/m 13,3 km/h (3 Bft) O-NO 60 0 min 0 W/m 13,2 C 11,8 C 13,3 km/h (3 Bft)
_ Min-Zeit 02:44 15:00 00:14 - 00:14 - - - - 02:44 20:00 00:14
Minimum _ 11,8 C 76 % 1002,5 hPa - 0,0 km/h (0 Bft) - - - - 10,0 C 11,5 C 0,0 km/h (0 Bft)
_ Max-Zeit 15:00 10:00 22:15 08:00 15:45 - - 00:14 00:14 13:15 14:00 15:45
Maximum _ 19,1 C 93 % 1008,5 hPa 0,6 l/m 19,2 km/h
NO (3 Bft)
- - 0 min 0 W/m 15,8 C 17,0 C 19,2 km/h
NO (3 Bft)
Durchschnitt _ 15,0 C 87 % 1005,8 hPa #3,0 l/m 7,4 km/h (2 Bft) N-NO - #0 min. 0 W/m 12,8 C 13,6 C 7,4 km/h (2 Bft)
copyright by Holger Just